Wilbur Observed Data For Previous 48 Hours

Caption
Day and Hour Reservoir Elevation (behind dam)* Tailwater Elevation (below dam)* Average Hourly Discharge*
10/19/2018 2 AM EDT 1,647.29 1,585.40 1,609
10/19/2018 3 AM EDT 1,647.08 1,585.38 1,607
10/19/2018 4 AM EDT 1,646.82 1,585.41 1,612
10/19/2018 5 AM EDT 1,646.59 1,585.53 1,617
10/19/2018 6 AM EDT 1,646.34 1,585.52 1,617
10/19/2018 7 AM EDT 1,646.04 1,585.50 1,618
10/19/2018 8 AM EDT 1,646.82 1,585.42 1,631
10/19/2018 9 AM EDT 1,647.52 1,585.41 1,613
10/19/2018 10 AM EDT 1,647.38 1,585.43 1,609
10/19/2018 11 AM EDT 1,647.11 1,585.38 1,608
10/19/2018 12 PM EDT 1,646.88 1,585.36 1,603
10/19/2018 1 PM EDT 1,646.63 1,585.46 1,614
10/19/2018 2 PM EDT 1,646.36 1,585.51 1,621
10/19/2018 3 PM EDT 1,646.12 1,585.47 1,615
10/19/2018 4 PM EDT 1,645.86 1,585.41 1,613
10/19/2018 5 PM EDT 1,645.58 1,585.50 1,622
10/19/2018 6 PM EDT 1,645.30 1,585.46 1,616
10/19/2018 7 PM EDT 1,645.03 1,585.46 1,620
10/19/2018 8 PM EDT 1,645.70 1,585.52 1,625
10/19/2018 9 PM EDT 1,646.46 1,585.53 1,634
10/19/2018 10 PM EDT 1,646.31 1,585.41 1,620
10/19/2018 11 PM EDT 1,646.04 1,585.45 1,615
10/20/2018 12 AM EDT 1,645.77 1,585.47 1,609
10/20/2018 1 AM EDT 1,645.51 1,585.51 1,620
10/20/2018 2 AM EDT 1,645.26 1,585.44 1,623
10/20/2018 3 AM EDT 1,644.98 1,585.48 1,620
10/20/2018 4 AM EDT 1,644.73 1,585.51 1,616
10/20/2018 5 AM EDT 1,644.46 1,585.40 1,619
10/20/2018 6 AM EDT 1,644.16 1,585.47 1,616
10/20/2018 7 AM EDT 1,643.95 1,585.52 1,625
10/20/2018 8 AM EDT 1,643.76 1,585.52 1,628
10/20/2018 9 AM EDT 1,643.59 1,585.51 1,625
10/20/2018 10 AM EDT 1,643.48 1,585.50 1,621
10/20/2018 11 AM EDT 1,644.38 1,585.53 1,624
10/20/2018 12 PM EDT 1,645.16 1,585.52 1,635
10/20/2018 1 PM EDT 1,645.94 1,585.55 1,635
10/20/2018 2 PM EDT 1,645.37 1,585.61 1,713
10/20/2018 3 PM EDT 1,644.65 1,585.59 1,718
10/20/2018 4 PM EDT 1,643.95 1,585.60 1,693
10/20/2018 5 PM EDT 1,643.19 1,585.58 1,676
10/20/2018 6 PM EDT 1,643.83 1,585.58 1,673
10/20/2018 7 PM EDT 1,644.64 1,585.54 1,644
10/20/2018 8 PM EDT 1,645.43 1,585.53 1,636
10/20/2018 9 PM EDT 1,646.18 1,585.53 1,635
10/20/2018 10 PM EDT 1,646.91 1,585.46 1,617
10/20/2018 11 PM EDT 1,647.63 1,585.42 1,620
10/21/2018 12 AM EDT 1,647.59 1,585.49 1,605
10/21/2018 1 AM EDT 1,647.36 1,585.48 1,607
10/21/2018 2 AM EDT 1,646.88 1,585.45 1,615
10/21/2018 3 AM EDT 1,646.35 1,585.43 1,611
10/21/2018 4 AM EDT 1,645.81 1,585.57 1,611
10/21/2018 5 AM EDT 1,645.27 1,585.54 1,619
10/21/2018 6 AM EDT 1,644.69 1,585.54 1,621
10/21/2018 7 AM EDT 1,644.35 1,585.53 1,618
10/21/2018 8 AM EDT 1,645.17 1,585.58 1,623
10/21/2018 9 AM EDT 1,645.95 1,585.55 1,629
10/21/2018 10 AM EDT 1,646.69 1,585.52 1,629

Elevations are in feet above sea level. Discharges are in cubic feet per second and are reported at the end of the hour.